sat.trackr.live / text

‹ back to catalog

HULIANWANG DIGUI-132

NORAD 67240 · 2025-311E

PAYLOAD ACTIVE UNKNOWN

§ Identity

Operator
Country
PRC
Launch date
2025-12-25
Launch site
WSC
Launch vehicle
Mass (kg)
RCS (m²)

External: N2YO · Heavens-Above · Gunter

§ Orbital elements

Epoch: 2026-05-25T03:33:44.407296Z

Period
108.33 min
Inclination
50.0046°
Eccentricity
0.0001016
Mean motion
13.29323122 rev/d
Perigee alt
1,148.6 km
Apogee alt
1,150.1 km
Semi-major
7,527.5 km
B*
5.8934e-5
RAAN
198.5024°
Arg perigee
245.3455°
Mean anomaly
114.7312°
Rev number
2,027

§ Raw data

HULIANWANG DIGUI-1321 67240U 25311E   26145.14843064 -.00000097  00000+0  58934-4 0  99982 67240  50.0046 198.5024 0001016 245.3455 114.7312 13.29323122 20279

JSON: /api/v1/satellites/67240 · /tle

For live sub-satellite position, see the globe view (requires WebGL).

§ Visibility from observer

Set your observer location to see the next 7 days of passes ≥ 10°. The values pass through the URL so the page stays shareable.

No JS? Fill the form by hand. The geolocation button needs JavaScript.